RH
23 23 24 26 33 34 36 37 39 39 45 46 49 52 54 66 70 77 83 89 91 91
24 25 27 32 35 37 39 39 41 45 46 48 50 53 60 69 73 80 88 91 92 91
25 25 28 35 36 39 40 41 43 46 47 50 51 55 64 71 78 87 93 92 92 93
24 26 31 33 38 40 41 40 44 45 50 53 52 58 69 79 87 91 91 92 91 90
24 28 29 35 41 42 40 41 45 49 55 58 62 69 73 79 88 87 87 88 89 90
24 29 30 39 41 41 37 43 46 52 63 65 72 80 74 85 86 86 85 86 89 94
23 27 33 39 41 39 39 45 48 58 64 72 81 75 72 80 83 82 85 89 95 97
24 27 35 40 41 39 42 46 52 59 70 78 82 72 72 84 83 85 91 95 98 97
25 31 36 40 42 41 44 47 53 65 73 75 81 78 82 86 86 90 94 98 98 98
29 31 34 39 42 42 43 48 55 65 70 72 81 81 82 88 91 95 97 98 98 98
25 27 30 37 41 42 45 49 56 61 65 67 70 69 75 86 89 91 94 97 99 98
23 26 30 35 40 44 47 50 54 52 56 59 58 55 55 72 85 87 91 96 97 99
21 25 28 36 39 41 42 37 32 37 42 49 51 46 42 52 61 73 86 95 97 98
21 24 27 32 29 25 22 23 23 28 33 30 37 37 39 45 47 58 66 93 98 98